Flag for Germany Weather past 2 weeks in Neustrelitz, Mecklenburg-Western Pomerania, Germany

Now
48 °F

Low clouds.


Feels Like: 48 °F
Forecast: 46 / 57 °F
Wind: 2 mph from West

Location: Neuruppin

Current Time: Oct 22, 2014 at 11:46:56 AM

Latest Report: Oct 22, 2014 at 10:00 AM


Visibility: 6 mi

Pressure: 29.62 "Hg

Humidity: 97%

Dew point: 47 °F

Location of NeustrelitzLocation

Historic Weather in Neustrelitz — Graph

°F

Neustrelitz temperature yesterday

Maximum temperature yesterday: 60 °F (at 1:00 PM)
Minimum temperature yesterday: 51 °F (at 7:00 AM)
Average temperature yesterday: 54 °F

Past Weeks' High & Low Weather Summary

 TemperatureHumidityPressure
High71 °F (Oct 19, 3:00 PM)100% (Oct 15, 8:00 AM)30.23 "Hg (Oct 15, 8:00 AM)
Low47 °F (Oct 16, 1:00 AM)67% (Oct 10, 2:00 PM)29.44 "Hg (Oct 21, 9:00 PM)
Average56 °F90%29.84 "Hg
* Reported Oct 7 10:00 AM — Oct 22 10:00 AM, Neustrelitz, Weather by CustomWeather, © 2014

Note: Actual official high and low records may vary slightly from our data, if they occured in-between our weather recording intervals... More about our weather records

Advertising

Neustrelitz weather history for previous 24 hours

 ConditionsComfort  
Time TempWeatherWind HumidityBarometerVisibility
10:00 AM
Oct 22
48 °FLow clouds.2 mph97%29.62 "Hg6 mi
9:00 AM47 °FLow clouds.2 mph97%29.60 "Hg3 mi
8:00 AM47 °FOvercast.2 mph93%29.59 "Hg6 mi
7:00 AM47 °FOvercast.2 mph93%29.57 "Hg6 mi
6:00 AM47 °FOvercast.3 mph94%29.56 "Hg6 mi
4:00 AM48 °FOvercast.5 mph94%29.56 "Hg6 mi
3:00 AM49 °FOvercast.5 mph92%29.53 "Hg6 mi
2:00 AM50 °FOvercast.3 mph93%29.50 "Hg6 mi
1:00 AM52 °FOvercast.3 mph90%29.47 "Hg6 mi
12:00 AM52 °FLow clouds.3 mph94%29.44 "Hg6 mi
11:00 PM
Oct 21
53 °FOvercast.2 mph93%29.44 "Hg6 mi
10:00 PM53 °FOvercast.5 mph92%29.44 "Hg6 mi
9:00 PM54 °FOvercast.5 mph85%29.44 "Hg6 mi
8:00 PM54 °FOvercast.6 mph84%29.47 "Hg6 mi
7:00 PM54 °FOvercast.5 mph84%29.50 "Hg6 mi
6:00 PM55 °FOvercast.3 mph84%29.50 "Hg6 mi
4:00 PM57 °FOvercast.5 mph80%29.59 "Hg6 mi
3:00 PM57 °FOvercast.3 mph78%29.62 "Hg6 mi
2:00 PM58 °FOvercast.3 mph76%29.65 "Hg6 mi
1:00 PM60 °FOvercast.6 mph70%29.68 "Hg6 mi
12:00 PM57 °FOvercast.5 mph80%29.72 "Hg6 mi
Weather by CustomWeather, © 2014

See weather overviewHow to use our weather pages